| time (UTC) | temp C | wind direction | speed KPH | gust KPH | rain 1hr cm | rain 24hr cm | rain mn cm | humidity % | barometer mb |
| 20260510092539 | -17 | 107 | 0.0 | 0.0 | 0.00 | 0.18 | 0.00 | 1007.8 | |
| 20260510092030 | -17 | 107 | 0.0 | 0.0 | 0.00 | 0.18 | 0.00 | 1007.8 | |
| 20260510091519 | -17 | 107 | 0.0 | 0.0 | 0.00 | 0.18 | 0.00 | 1007.7 | |
| 20260510091010 | -17 | 107 | 0.0 | 1.6 | 0.00 | 0.18 | 0.00 | 1007.7 | |
| 20260510090500 | -17 | 107 | 0.0 | 1.6 | 0.00 | 0.18 | 0.00 | 1007.8 | |
| 20260510085950 | -17 | 107 | 0.0 | 1.6 | 0.00 | 0.18 | 0.00 | 1007.8 | |
| 20260510085440 | -17 | 107 | 0.0 | 1.6 | 0.00 | 0.18 | 0.00 | 1007.9 | |
| 20260510084930 | -17 | 133 | 0.0 | 1.6 | 0.00 | 0.18 | 0.00 | 1007.9 | |
| 20260510084419 | -17 | 150 | 0.0 | 3.2 | 0.00 | 0.18 | 0.00 | 1007.9 | |
| 20260510083909 | -17 | 150 | 1.6 | 4.8 | 0.00 | 0.18 | 0.00 | 1007.8 | |
| 20260510083630 | -17 | 143 | 1.6 | 6.4 | 0.00 | 0.18 | 0.00 | 1007.9 | |
| 20260510082614 | -17 | 143 | 1.6 | 6.4 | 0.00 | 0.18 | 0.00 | 1007.9 | |
| 20260510082104 | -17 | 10 | 1.6 | 6.4 | 0.00 | 0.18 | 0.00 | 1008.0 | |
| 20260510081324 | -17 | 144 | 1.6 | 3.2 | 0.00 | 0.18 | 0.00 | 1008.0 | |
| 20260510081044 | -17 | 148 | 1.6 | 3.2 | 0.00 | 0.18 | 0.00 | 1007.9 | |
| 20260510080303 | -17 | 142 | 0.0 | 3.2 | 0.00 | 0.18 | 0.00 | 1007.9 | |
| 20260510080034 | -17 | 156 | 0.0 | 3.2 | 0.00 | 0.18 | 0.00 | 1007.9 | |
| 20260510075253 | -17 | 163 | 0.0 | 4.8 | 0.00 | 0.18 | 0.00 | 1007.9 | |
| 20260510074743 | -17 | 144 | 1.6 | 4.8 | 0.00 | 0.18 | 0.00 | 1007.9 | |
| 20260510074232 | -17 | 138 | 1.6 | 4.8 | 0.00 | 0.18 | 0.00 | 1007.9 | |
| 20260510073721 | -17 | 123 | 1.6 | 3.2 | 0.00 | 0.18 | 0.00 | 1008.0 | |
| 20260510073219 | -17 | 111 | 1.6 | 3.2 | 0.00 | 0.18 | 0.00 | 1008.0 | |
| 20260510072710 | -17 | 115 | 1.6 | 4.8 | 0.00 | 0.18 | 0.00 | 1007.9 | |
| 20260510072157 | -17 | 143 | 1.6 | 4.8 | 0.00 | 0.18 | 0.00 | 1007.9 | |
| 20260510071646 | -17 | 155 | 0.0 | 3.2 | 0.00 | 0.18 | 0.00 | 1007.8 | |
| 20260510071136 | -17 | 156 | 1.6 | 4.8 | 0.00 | 0.18 | 0.00 | 1007.9 | |
| 20260510070625 | -17 | 156 | 0.0 | 4.8 | 0.00 | 0.18 | 0.00 | 1007.9 | |
| 20260510070107 | -17 | 142 | 0.0 | 6.4 | 0.00 | 0.18 | 0.00 | 1008.0 | |
| 20260510065828 | -17 | 142 | 1.6 | 6.4 | 0.00 | 0.18 | 0.00 | 1008.1 | |
| 20260510065317 | -17 | 144 | 3.2 | 6.4 | 0.00 | 0.18 | 0.00 | 1008.2 | |
| 20260510064537 | -17 | 140 | 3.2 | 9.7 | 0.00 | 0.18 | 0.00 | 1008.2 | |
| 20260510064025 | -17 | 122 | 4.8 | 6.4 | 0.00 | 0.18 | 0.00 | 1008.2 | |
| 20260510063515 | -17 | 106 | 4.8 | 9.7 | 0.00 | 0.18 | 0.00 | 1008.3 | |
| 20260510063006 | -17 | 107 | 4.8 | 9.7 | 0.00 | 0.18 | 0.00 | 1008.4 | |
| 20260510062455 | -17 | 84 | 4.8 | 12.9 | 0.00 | 0.18 | 0.00 | 1008.5 | |
| 20260510062216 | -17 | 104 | 4.8 | 12.9 | 0.00 | 0.18 | 0.00 | 1008.6 | |
| 20260510061706 | -17 | 94 | 4.8 | 8.0 | 0.00 | 0.18 | 0.00 | 1008.7 | |
| 20260510061152 | -17 | 73 | 6.4 | 11.3 | 0.00 | 0.18 | 0.00 | 1008.7 | |
| 20260510060411 | -17 | 88 | 6.4 | 12.9 | 0.00 | 0.18 | 0.00 | 1008.7 | |
| 20260510055912 | -17 | 65 | 6.4 | 12.9 | 0.00 | 0.18 | 0.00 | 1008.9 | |
| 20260510055354 | -17 | 78 | 6.4 | 12.9 | 0.00 | 0.18 | 0.00 | 1008.7 | |
| 20260510054841 | -17 | 96 | 6.4 | 12.9 | 0.00 | 0.18 | 0.00 | 1008.6 | |
| 20260510054331 | -17 | 107 | 6.4 | 12.9 | 0.00 | 0.18 | 0.00 | 1008.7 | |
| 20260510053821 | -17 | 92 | 6.4 | 12.9 | 0.00 | 0.18 | 0.00 | 1008.7 | |
| 20260510053311 | -17 | 86 | 6.4 | 11.3 | 0.00 | 0.18 | 0.00 | 1008.6 | |
| 20260510053032 | -17 | 79 | 4.8 | 11.3 | 0.00 | 0.18 | 0.00 | 1008.7 | |
| 20260510052259 | -17 | 108 | 4.8 | 11.3 | 0.00 | 0.18 | 0.00 | 1008.5 | |
| 20260510051749 | -17 | 102 | 4.8 | 11.3 | 0.00 | 0.18 | 0.00 | 1008.4 | |
| 20260510051240 | -17 | 102 | 4.8 | 11.3 | 0.00 | 0.18 | 0.00 | 1008.3 | |
| 20260510050727 | -17 | 92 | 4.8 | 6.4 | 0.00 | 0.18 | 0.00 | 1008.4 | |
| 20260510050217 | -17 | 109 | 4.8 | 6.4 | 0.00 | 0.18 | 0.00 | 1008.3 | |
| 20260510045701 | -17 | 111 | 3.2 | 6.4 | 0.00 | 0.18 | 0.18 | 1008.2 | |
| 20260510045423 | -17 | 110 | 3.2 | 6.4 | 0.00 | 0.18 | 0.18 | 1008.2 | |
| 20260510044641 | -17 | 99 | 3.2 | 6.4 | 0.00 | 0.18 | 0.18 | 1008.1 | |
| 20260510044129 | -17 | 103 | 4.8 | 8.0 | 0.00 | 0.18 | 0.18 | 1008.1 | |
| 20260510043619 | -17 | 88 | 8.0 | 14.5 | 0.00 | 0.18 | 0.18 | 1008.2 | |
| 20260510043109 | -17 | 85 | 8.0 | 14.5 | 0.00 | 0.18 | 0.18 | 1008.3 | |
| 20260510042559 | -17 | 86 | 6.4 | 14.5 | 0.00 | 0.18 | 0.18 | 1008.4 | |
| 20260510042047 | -17 | 92 | 4.8 | 9.7 | 0.00 | 0.18 | 0.18 | 1008.2 | |
| 20260510041537 | -17 | 126 | 4.8 | 6.4 | 0.00 | 0.18 | 0.18 | 1008.0 | |
| 20260510041027 | -17 | 119 | 4.8 | 6.4 | 0.00 | 0.18 | 0.18 | 1007.9 | |
| 20260510040518 | -17 | 114 | 4.8 | 14.5 | 0.00 | 0.18 | 0.18 | 1007.9 | |
| 20260510040238 | -17 | 96 | 4.8 | 14.5 | 0.00 | 0.18 | 0.18 | 1007.8 | |
| 20260510035457 | -17 | 146 | 9.7 | 16.1 | 0.00 | 0.18 | 0.18 | 1007.3 | |
| 20260510034946 | -17 | 200 | 11.3 | 16.1 | 0.00 | 0.18 | 0.18 | 1006.9 | |
| 20260510034436 | -17 | 192 | 11.3 | 16.1 | 0.00 | 0.18 | 0.18 | 1006.9 | |
| 20260510033934 | -17 | 221 | 11.3 | 16.1 | 0.00 | 0.18 | 0.18 | 1006.9 | |
| 20260510033656 | -17 | 201 | 9.7 | 16.1 | 0.00 | 0.18 | 0.18 | 1007.0 | |
| 20260510033145 | -17 | 192 | 8.0 | 14.5 | 0.00 | 0.18 | 0.18 | 1007.1 | |
| 20260510032404 | -17 | 10 | 4.8 | 12.9 | 0.00 | 0.18 | 0.18 | 1007.2 | |
| 20260510031849 | -17 | 10 | 3.2 | 6.4 | 0.00 | 0.18 | 0.18 | 1007.2 | |
| 20260510031330 | -17 | 183 | 3.2 | 6.4 | 0.00 | 0.18 | 0.18 | 1007.1 | |
| 20260510030821 | -17 | 162 | 3.2 | 6.4 | 0.00 | 0.18 | 0.18 | 1007.1 | |
| 20260510030542 | -17 | 142 | 4.8 | 6.4 | 0.00 | 0.18 | 0.18 | 1007.2 | |
| 20260510030035 | -17 | 10 | 4.8 | 8.0 | 0.00 | 0.18 | 0.18 | 1007.1 | |
| 20260510025525 | -17 | 10 | 4.8 | 8.0 | 0.00 | 0.18 | 0.18 | 1007.0 | |
| 20260510024746 | -17 | 10 | 3.2 | 8.0 | 0.00 | 0.18 | 0.18 | 1006.9 | |
| 20260510024240 | -17 | 156 | 3.2 | 6.4 | 0.00 | 0.18 | 0.18 | 1007.0 | |
| 20260510023724 | -17 | 105 | 4.8 | 6.4 | 0.00 | 0.18 | 0.18 | 1007.0 | |
| 20260510023216 | -17 | 94 | 3.2 | 6.4 | 0.00 | 0.18 | 0.18 | 1007.0 | |
| 20260510022710 | -17 | 90 | 0.0 | 3.2 | 0.00 | 0.18 | 0.18 | 1006.9 | |
| 20260510022207 | -17 | 122 | 0.0 | 3.2 | 0.00 | 0.18 | 0.18 | 1006.8 | |
| 20260510021706 | -17 | 122 | 0.0 | 3.2 | 0.00 | 0.18 | 0.18 | 1006.7 | |
| 20260510020152 | -17 | 185 | 1.6 | 11.3 | 0.00 | 0.18 | 0.18 | 1006.1 | |
| 20260510015648 | -17 | 196 | 3.2 | 11.3 | 0.00 | 0.18 | 0.18 | 1005.8 | |
| 20260510015417 | -17 | 206 | 6.4 | 11.3 | 0.00 | 0.18 | 0.18 | 1005.7 | |
| 20260510014640 | -17 | 210 | 9.7 | 14.5 | 0.00 | 0.18 | 0.18 | 1005.4 | |
| 20260510014134 | -17 | 212 | 9.7 | 14.5 | 0.00 | 0.18 | 0.18 | 1005.2 | |
| 20260510013628 | -17 | 223 | 9.7 | 12.9 | 0.00 | 0.18 | 0.18 | 1005.3 | |
| 20260510013124 | -17 | 216 | 8.0 | 12.9 | 0.00 | 0.18 | 0.18 | 1005.0 | |
| 20260510012621 | -17 | 10 | 9.7 | 16.1 | 0.00 | 0.18 | 0.18 | 1005.3 | |
| 20260510012115 | -17 | 204 | 11.3 | 16.1 | 0.00 | 0.18 | 0.18 | 1005.2 | |
| 20260510011842 | -17 | 219 | 11.3 | 14.5 | 0.00 | 0.18 | 0.18 | 1005.2 | |
| 20260510011106 | -17 | 233 | 9.7 | 14.5 | 0.00 | 0.18 | 0.18 | 1005.4 | |
| 20260510010836 | -17 | 229 | 8.0 | 14.5 | 0.00 | 0.18 | 0.18 | 1005.4 | |
| 20260510010330 | -17 | 10 | 8.0 | 12.9 | 0.00 | 0.18 | 0.18 | 1005.5 | |
| 20260510005554 | -17 | 206 | 8.0 | 12.9 | 0.00 | 0.18 | 0.18 | 1005.5 | |
| 20260510005051 | -17 | 10 | 6.4 | 12.9 | 0.00 | 0.18 | 0.18 | 1005.7 | |
| 20260510004548 | -17 | 10 | 4.8 | 8.0 | 0.00 | 0.18 | 0.18 | 1005.7 | |
| 20260510004041 | -17 | 10 | 3.2 | 8.0 | 0.00 | 0.18 | 0.18 | 1005.8 | |
| 20260510003535 | -17 | 179 | 4.8 | 9.7 | 0.00 | 0.18 | 0.18 | 1005.7 | |
| 20260510003034 | -17 | 10 | 6.4 | 16.1 | 0.00 | 0.18 | 0.18 | 1005.7 | |
| 20260510002530 | -17 | 10 | 6.4 | 16.1 | 0.00 | 0.18 | 0.18 | 1005.6 | |
| 20260510002026 | -17 | 10 | 9.7 | 16.1 | 0.00 | 0.18 | 0.18 | 1005.6 | |
| 20260510001519 | -17 | 10 | 11.3 | 16.1 | 0.00 | 0.18 | 0.18 | 1005.5 | |
| 20260510001017 | -17 | 10 | 11.3 | 16.1 | 0.00 | 0.18 | 0.18 | 1005.4 | |
| 20260510000513 | -17 | 10 | 11.3 | 16.1 | 0.00 | 0.18 | 0.18 | 1005.4 | |
| 20260510000241 | -17 | 10 | 11.3 | 16.1 | 0.00 | 0.18 | 0.18 | 1005.4 | |
| 20260509235507 | -17 | 10 | 11.3 | 16.1 | 0.00 | 0.18 | 0.18 | 1005.3 | |
| 20260509235004 | -17 | 10 | 8.0 | 14.5 | 0.00 | 0.18 | 0.18 | 1005.3 | |
| 20260509234458 | -17 | 10 | 6.4 | 14.5 | 0.00 | 0.18 | 0.18 | 1005.4 | |
| 20260509233952 | -17 | 177 | 6.4 | 14.5 | 0.00 | 0.18 | 0.18 | 1005.3 | |
| 20260509233449 | -17 | 176 | 8.0 | 14.5 | 0.00 | 0.18 | 0.18 | 1005.3 | |
| 20260509232940 | -17 | 169 | 9.7 | 16.1 | 0.00 | 0.18 | 0.18 | 1005.2 | |
| 20260509232427 | -17 | 10 | 9.7 | 16.1 | 0.00 | 0.18 | 0.18 | 1005.3 | |
| 20260509231407 | -17 | 10 | 12.9 | 17.7 | 0.00 | 0.18 | 0.18 | 1005.2 | |
| 20260509231130 | -17 | 10 | 14.5 | 19.3 | 0.00 | 0.18 | 0.18 | 1005.2 | |
| 20260509230611 | -17 | 10 | 14.5 | 19.3 | 0.00 | 0.18 | 0.18 | 1005.1 | |
| 20260509225829 | -17 | 147 | 14.5 | 17.7 | 0.00 | 0.18 | 0.18 | 1005.1 | |
| 20260509225320 | -17 | 10 | 14.5 | 17.7 | 0.00 | 0.18 | 0.18 | 1005.1 | |
| 20260509224810 | -17 | 150 | 12.9 | 17.7 | 0.00 | 0.18 | 0.18 | 1005.1 | |
| 20260509224300 | -17 | 10 | 12.9 | 17.7 | 0.00 | 0.18 | 0.18 | 1005.2 | |
| 20260509224020 | -17 | 10 | 14.5 | 17.7 | 0.00 | 0.18 | 0.18 | 1005.3 | |
| 20260509223237 | -17 | 10 | 11.3 | 17.7 | 0.00 | 0.18 | 0.18 | 1005.4 | |
| 20260509222727 | -17 | 10 | 9.7 | 16.1 | 0.00 | 0.18 | 0.18 | 1005.3 | |
| 20260509222217 | -17 | 163 | 11.3 | 16.1 | 0.00 | 0.18 | 0.18 | 1005.2 | |
| 20260509221707 | -17 | 10 | 11.3 | 16.1 | 0.00 | 0.18 | 0.18 | 1005.3 | |
| 20260509221157 | -17 | 138 | 9.7 | 16.1 | 0.00 | 0.18 | 0.18 | 1005.2 | |
| 20260509220647 | -17 | 138 | 11.3 | 16.1 | 0.00 | 0.18 | 0.18 | 1005.2 | |
| 20260509220137 | -17 | 10 | 11.3 | 17.7 | 0.00 | 0.18 | 0.18 | 1005.3 | |
| 20260509215634 | -17 | 10 | 9.7 | 17.7 | 0.00 | 0.18 | 0.18 | 1005.2 | |
| 20260509215123 | -17 | 10 | 9.7 | 16.1 | 0.00 | 0.18 | 0.18 | 1005.3 | |
| 20260509214613 | -17 | 183 | 11.3 | 17.7 | 0.00 | 0.18 | 0.18 | 1005.3 | |
| 20260509214105 | -17 | 10 | 11.3 | 17.7 | 0.00 | 0.18 | 0.18 | 1005.1 | |
| 20260509213553 | -17 | 163 | 4.8 | 14.5 | 0.00 | 0.18 | 0.18 | 1005.2 | |
| 20260509213034 | -17 | 10 | 1.6 | 8.0 | 0.00 | 0.18 | 0.18 | 1005.3 | |
| 20260509212524 | -17 | 172 | 3.2 | 8.0 | 0.00 | 0.18 | 0.18 | 1005.2 | |
| 20260509212013 | -17 | 167 | 3.2 | 8.0 | 0.00 | 0.18 | 0.18 | 1005.2 | |
| 20260509211457 | -17 | 178 | 3.2 | 9.7 | 0.00 | 0.18 | 0.18 | 1005.2 | |
| 20260509211218 | -17 | 10 | 3.2 | 9.7 | 0.00 | 0.18 | 0.18 | 1005.2 | |
| 20260509210448 | -17 | 106 | 1.6 | 6.4 | 0.00 | 0.18 | 0.18 | 1005.2 | |
| 20260509205938 | -17 | 178 | 1.6 | 11.3 | 0.00 | 0.18 | 0.18 | 1005.3 | |
| 20260509205426 | -17 | 102 | 0.0 | 11.3 | 0.00 | 0.18 | 0.18 | 1005.3 | |
| 20260509205146 | -17 | 90 | 1.6 | 4.8 | 0.00 | 0.18 | 0.18 | 1005.4 | |
| 20260509204405 | -17 | 60 | 1.6 | 4.8 | 0.00 | 0.18 | 0.18 | 1005.3 | |
| 20260509203855 | -17 | 67 | 1.6 | 8.0 | 0.00 | 0.18 | 0.18 | 1005.4 | |
| 20260509203616 | -17 | 150 | 3.2 | 8.0 | 0.00 | 0.18 | 0.18 | 1005.4 | |
| 20260509202835 | -17 | 116 | 3.2 | 9.7 | 0.00 | 0.18 | 0.18 | 1005.5 | |
| 20260509202556 | -17 | 176 | 1.6 | 9.7 | 0.00 | 0.18 | 0.18 | 1005.6 | |
| 20260509201815 | -17 | 203 | 1.6 | 6.4 | 0.00 | 0.18 | 0.18 | 1005.6 | |
| 20260509201536 | -17 | 106 | 1.6 | 6.4 | 0.00 | 0.18 | 0.18 | 1005.7 | |
| 20260509200755 | -17 | 98 | 1.6 | 6.4 | 0.00 | 0.18 | 0.18 | 1005.7 | |
| 20260509200245 | -17 | 82 | 0.0 | 6.4 | 0.00 | 0.18 | 0.18 | 1005.8 | |
| 20260509195735 | -17 | 87 | 0.0 | 4.8 | 0.00 | 0.18 | 0.18 | 1005.8 | |
| 20260509195224 | -17 | 15 | 1.6 | 8.0 | 0.00 | 0.18 | 0.18 | 1005.9 | |
| 20260509194714 | -17 | 66 | 0.0 | 8.0 | 0.00 | 0.18 | 0.18 | 1005.9 | |
| 20260509194436 | -17 | 351 | 0.0 | 4.8 | 0.00 | 0.18 | 0.18 | 1006.0 | |
| 20260509193648 | -17 | 309 | 0.0 | 4.8 | 0.00 | 0.18 | 0.18 | 1006.1 | |
| 20260509192908 | -17 | 196 | 1.6 | 6.4 | 0.00 | 0.18 | 0.18 | 1006.2 | |
| 20260509192131 | -17 | 277 | 3.2 | 12.9 | 0.00 | 0.18 | 0.18 | 1006.4 | |
| 20260509191622 | -17 | 267 | 1.6 | 9.7 | 0.00 | 0.18 | 0.18 | 1006.4 | |
| 20260509191105 | -17 | 40 | 1.6 | 12.9 | 0.00 | 0.18 | 0.18 | 1006.3 | |
| 20260509190556 | -17 | 10 | 1.6 | 12.9 | 0.00 | 0.18 | 0.18 | 1006.6 | |
| 20260509190045 | -17 | 354 | 0.0 | 6.4 | 0.00 | 0.18 | 0.18 | 1006.6 | |
| 20260509185535 | -17 | 354 | 0.0 | 4.8 | 0.00 | 0.18 | 0.18 | 1006.6 | |
| 20260509185026 | -17 | 308 | 0.0 | 4.8 | 0.00 | 0.18 | 0.18 | 1006.7 | |
| 20260509184006 | -17 | 289 | 1.6 | 6.4 | 0.00 | 0.18 | 0.18 | 1006.7 | |
| 20260509183456 | -17 | 289 | 1.6 | 11.3 | 0.00 | 0.18 | 0.18 | 1006.6 | |
| 20260509182945 | -17 | 261 | 3.2 | 9.7 | 0.00 | 0.18 | 0.18 | 1006.7 | |
| 20260509182435 | -17 | 287 | 3.2 | 11.3 | 0.00 | 0.18 | 0.18 | 1006.7 | |
| 20260509181926 | -17 | 277 | 1.6 | 6.4 | 0.00 | 0.18 | 0.18 | 1006.8 | |
| 20260509181416 | -17 | 309 | 3.2 | 8.0 | 0.00 | 0.18 | 0.18 | 1006.8 | |
| 20260509180915 | -17 | 355 | 1.6 | 8.0 | 0.00 | 0.18 | 0.18 | 1006.9 | |
| 20260509180405 | -17 | 314 | 1.6 | 8.0 | 0.00 | 0.18 | 0.18 | 1006.9 | |
| 20260509180127 | -17 | 337 | 3.2 | 12.9 | 0.00 | 0.18 | 0.18 | 1007.0 | |
| 20260509175346 | -17 | 329 | 3.2 | 12.9 | 0.00 | 0.18 | 0.18 | 1007.0 | |
| 20260509174337 | -17 | 10 | 3.2 | 11.3 | 0.00 | 0.18 | 0.18 | 1007.2 | |
| 20260509173747 | -17 | 324 | 4.8 | 14.5 | 0.00 | 0.18 | 0.18 | 1007.3 | |
| 20260509173237 | -17 | 294 | 6.4 | 14.5 | 0.00 | 0.18 | 0.18 | 1007.2 | |
| 20260509172726 | -17 | 325 | 4.8 | 14.5 | 0.00 | 0.18 | 0.18 | 1007.5 | |
| 20260509172215 | -17 | 5 | 4.8 | 12.9 | 0.00 | 0.18 | 0.18 | 1007.5 | |
| 20260509171705 | -17 | 10 | 4.8 | 12.9 | 0.00 | 0.18 | 0.18 | 1007.3 | |
| 20260509171203 | -17 | 289 | 4.8 | 12.9 | 0.00 | 0.18 | 0.18 | 1007.4 | |
| 20260509170925 | -17 | 318 | 3.2 | 8.0 | 0.00 | 0.18 | 0.18 | 1007.5 | |
| 20260509170146 | -17 | 333 | 1.6 | 6.4 | 0.00 | 0.18 | 0.18 | 1007.4 | |
| 20260509165635 | -17 | 298 | 3.2 | 11.3 | 0.00 | 0.18 | 0.18 | 1007.2 | |
| 20260509165125 | -17 | 0 | 4.8 | 12.9 | 0.00 | 0.18 | 0.18 | 1007.2 | |
| 20260509164617 | -17 | 10 | 4.8 | 12.9 | 0.00 | 0.18 | 0.18 | 1007.1 | |
| 20260509164105 | -17 | 319 | 4.8 | 8.0 | 0.00 | 0.18 | 0.18 | 1007.2 | |
| 20260509163558 | -17 | 10 | 6.4 | 14.5 | 0.00 | 0.18 | 0.18 | 1007.3 | |
| 20260509163321 | -17 | 327 | 4.8 | 14.5 | 0.00 | 0.18 | 0.18 | 1007.1 | |
| 20260509162542 | -17 | 294 | 4.8 | 14.5 | 0.00 | 0.18 | 0.18 | 1007.3 | |
| 20260509162033 | -17 | 325 | 6.4 | 16.1 | 0.00 | 0.18 | 0.18 | 1007.0 | |
| 20260509161756 | -17 | 338 | 4.8 | 16.1 | 0.00 | 0.18 | 0.18 | 1007.0 | |
| 20260509161009 | -17 | 318 | 3.2 | 6.4 | 0.00 | 0.18 | 0.18 | 1006.8 | |
| 20260509160509 | -17 | 321 | 1.6 | 6.4 | 0.00 | 0.18 | 0.18 | 1007.1 | |
| 20260509160003 | -17 | 328 | 0.0 | 1.6 | 0.00 | 0.18 | 0.18 | 1006.9 | |
| 20260509155456 | -17 | 277 | 0.0 | 0.0 | 0.00 | 0.18 | 0.18 | 1007.0 | |
| 20260509154438 | -17 | 198 | 0.0 | 0.0 | 0.00 | 0.18 | 0.18 | 1007.1 | |
| 20260509154203 | -17 | 198 | 0.0 | 3.2 | 0.00 | 0.18 | 0.18 | 1007.0 | |
| 20260509153422 | -17 | 198 | 0.0 | 3.2 | 0.00 | 0.18 | 0.18 | 1007.1 | |
| 20260509152917 | -17 | 198 | 0.0 | 3.2 | 0.00 | 0.18 | 0.18 | 1007.2 | |
| 20260509151912 | -17 | 208 | 0.0 | 1.6 | 0.00 | 0.18 | 0.18 | 1007.5 | |
| 20260509151405 | -17 | 209 | 0.0 | 3.2 | 0.00 | 0.18 | 0.18 | 1007.2 | |
| 20260509151133 | -17 | 170 | 0.0 | 3.2 | 0.00 | 0.18 | 0.18 | 1007.2 | |
| 20260509150623 | -17 | 194 | 0.0 | 3.2 | 0.00 | 0.18 | 0.18 | 1007.4 | |
| 20260509145846 | -17 | 293 | 0.0 | 4.8 | 0.00 | 0.18 | 0.18 | 1007.2 | |
| 20260509145339 | -17 | 319 | 0.0 | 4.8 | 0.00 | 0.18 | 0.18 | 1007.2 | |
| 20260509145109 | -17 | 299 | 1.6 | 6.4 | 0.00 | 0.18 | 0.18 | 1007.4 | |
| 20260509144334 | -17 | 312 | 1.6 | 6.4 | 0.00 | 0.18 | 0.18 | 1007.4 | |
| 20260509143834 | -17 | 354 | 0.0 | 4.8 | 0.00 | 0.18 | 0.18 | 1007.3 | |
| 20260509143332 | -17 | 310 | 0.0 | 1.6 | 0.00 | 0.18 | 0.18 | 1007.6 | |
| 20260509142825 | -17 | 286 | 0.0 | 11.3 | 0.00 | 0.18 | 0.18 | 1007.4 | |
| 20260509142317 | -17 | 289 | 1.6 | 11.3 | 0.00 | 0.18 | 0.18 | 1007.1 | |
| 20260509142112 | -17 | 262 | 8.0 | 12.9 | 0.00 | 0.18 | 0.18 | 1006.9 | |
| 20260509140447 | -17 | 280 | 9.7 | 16.1 | 0.00 | 0.18 | 0.18 | 1006.9 | |
| 20260509135939 | -17 | 290 | 11.3 | 17.7 | 0.00 | 0.18 | 0.18 | 1007.2 | |
| 20260509135435 | -17 | 277 | 9.7 | 17.7 | 0.00 | 0.18 | 0.18 | 1007.7 | |
| 20260509134927 | -17 | 269 | 9.7 | 22.5 | 0.00 | 0.18 | 0.18 | 1007.3 | |
| 20260509134421 | -17 | 287 | 11.3 | 22.5 | 0.00 | 0.18 | 0.18 | 1007.0 | |
| 20260509134144 | -17 | 327 | 12.9 | 22.5 | 0.00 | 0.18 | 0.18 | 1006.6 | |
| 20260509133633 | -17 | 299 | 14.5 | 25.7 | 0.00 | 0.18 | 0.18 | 1006.5 | |
| 20260509133123 | -17 | 289 | 17.7 | 25.7 | 0.00 | 0.18 | 0.18 | 1006.2 | |
| 20260509132349 | -17 | 311 | 17.7 | 33.8 | 0.00 | 0.18 | 0.18 | 1006.0 | |
| 20260509131851 | -17 | 298 | 19.3 | 33.8 | 0.00 | 0.18 | 0.18 | 1005.9 | |
| 20260509131342 | -17 | 279 | 14.5 | 30.6 | 0.00 | 0.18 | 0.18 | 1005.8 | |
| 20260509130829 | -17 | 282 | 14.5 | 30.6 | 0.00 | 0.18 | 0.18 | 1005.4 | |
| 20260509130320 | -17 | 108 | 22.5 | 30.6 | 0.00 | 0.18 | 0.18 | 1003.9 | |
| 20260509125808 | -17 | 10 | 20.9 | 30.6 | 0.00 | 0.18 | 0.18 | 1004.1 | |
| 20260509125300 | -17 | 123 | 9.7 | 27.4 | 0.03 | 0.18 | 0.18 | 1004.7 | |
| 20260509125019 | -17 | 81 | 6.4 | 19.3 | 0.03 | 0.18 | 0.18 | 1007.1 | |
| 20260509124234 | -17 | 325 | 16.1 | 27.4 | 0.03 | 0.18 | 0.18 | 1007.1 | |
| 20260509123724 | -17 | 234 | 22.5 | 30.6 | 0.05 | 0.18 | 0.18 | 1006.2 | |
| 20260509123212 | -17 | 203 | 22.5 | 32.2 | 0.05 | 0.18 | 0.18 | 1005.4 | |
| 20260509122943 | -17 | 213 | 20.9 | 32.2 | 0.08 | 0.18 | 0.18 | 1005.0 | |
| 20260509122202 | -17 | 217 | 19.3 | 27.4 | 0.10 | 0.18 | 0.18 | 1005.5 | |
| 20260509121652 | -17 | 232 | 17.7 | 27.4 | 0.15 | 0.18 | 0.18 | 1006.2 | |
| 20260509121142 | -17 | 228 | 17.7 | 27.4 | 0.18 | 0.18 | 0.18 | 1006.5 | |
| 20260509120630 | -17 | 10 | 17.7 | 25.7 | 0.18 | 0.18 | 0.18 | 1006.7 | |
| 20260509120352 | -17 | 194 | 14.5 | 24.1 | 0.18 | 0.18 | 0.18 | 1006.9 | |
| 20260509115610 | -17 | 217 | 11.3 | 20.9 | 0.18 | 0.18 | 0.18 | 1007.3 | |
| 20260509115100 | -17 | 223 | 11.3 | 17.7 | 0.15 | 0.15 | 0.15 | 1007.8 | |
| 20260509114543 | -17 | 216 | 8.0 | 17.7 | 0.15 | 0.15 | 0.15 | 1008.0 | |
| 20260509114040 | -17 | 248 | 8.0 | 12.9 | 0.15 | 0.15 | 0.15 | 1008.4 | |
| 20260509113530 | -17 | 10 | 6.4 | 12.9 | 0.13 | 0.13 | 0.13 | 1008.1 | |
| 20260509113026 | -17 | 10 | 3.2 | 8.0 | 0.13 | 0.13 | 0.13 | 1008.0 | |
| 20260509112517 | -17 | 175 | 3.2 | 8.0 | 0.10 | 0.10 | 0.10 | 1008.0 | |
| 20260509112005 | -17 | 200 | 3.2 | 8.0 | 0.05 | 0.05 | 0.05 | 1008.0 | |
| 20260509111454 | -17 | 212 | 0.0 | 4.8 | 0.03 | 0.03 | 0.03 | 1008.0 | |
| 20260509110945 | -17 | 236 | 0.0 | 1.6 | 0.00 | 0.00 | 0.00 | 1008.0 | |
| 20260509110428 | -17 | 283 | 0.0 | 1.6 | 0.00 | 0.00 | 0.00 | 1007.9 | |
| 20260509105919 | -17 | 321 | 0.0 | 4.8 | 0.00 | 0.00 | 0.00 | 1007.6 | |
| 20260509105408 | -17 | 311 | 1.6 | 4.8 | 0.00 | 0.00 | 0.00 | 1007.6 | |
| 20260509105129 | -17 | 306 | 0.0 | 3.2 | 0.00 | 0.00 | 0.00 | 1007.2 | |
| 20260509104345 | -17 | 61 | 0.0 | 0.0 | 0.00 | 0.00 | 0.00 | 1006.7 | |
| 20260509103835 | -17 | 61 | 0.0 | 1.6 | 0.00 | 0.00 | 0.00 | 1006.5 | |
| 20260509103324 | -17 | 61 | 0.0 | 1.6 | 0.00 | 0.00 | 0.00 | 1006.3 | |
| 20260509102814 | -17 | 50 | 0.0 | 0.0 | 0.00 | 0.00 | 0.00 | 1006.4 | |
| 20260509102535 | -17 | 50 | 0.0 | 0.0 | 0.00 | 0.00 | 0.00 | 1006.6 | |
| 20260509101754 | -17 | 160 | 0.0 | 0.0 | 0.00 | 0.00 | 0.00 | 1006.5 | |
| 20260509101244 | -17 | 160 | 0.0 | 0.0 | 0.00 | 0.00 | 0.00 | 1006.5 | |
| 20260509100734 | -17 | 160 | 0.0 | 1.6 | 0.00 | 0.00 | 0.00 | 1006.2 | |
| 20260509100224 | -17 | 160 | 0.0 | 1.6 | 0.00 | 0.00 | 0.00 | 1006.1 | |
| 20260509095714 | -17 | 160 | 0.0 | 1.6 | 0.00 | 0.00 | 0.00 | 1006.3 |